Location: Unspecified
(0.0000°N, 0.0000°E)
Time: 01:29:13
(UTC+00:00)

Vanguard 2 Rocket - Pass Details

Date: 21 November 2019
Orbit: 554 x 3326 km, 32.9° (Epoch: 11 December)

Event Time Altitude Azimuth Distance (km) Brightness Sun altitude
Rises 16:41:36 0° 222° (SW) 6,872 12.6 15.1°
Reaches altitude 10° 16:48:23 10° 209° (SSW) 5,412 11.8 13.5°
Maximum altitude 16:58:50 22° 165° (SSE) 3,589 10.1 11.0°
Drops below altitude 10° 17:06:08 10° 118° (ESE) 3,675 9.6 9.3°
Sets 17:09:31 0° 102° (ESE) 4,252 9.8 8.5°
